Flag for Germany Weather past 2 weeks in Minden, North Rhine-Westphalia, Germany

Now
57 °F

Partly sunny.


Feels Like: 57 °F
Forecast: 46 / 63 °F
Wind: 3 mph from North

Location: Bueckeburg

Current Time: May 22, 2015 at 10:34:39 AM

Latest Report: May 22, 2015 at 9:20 AM


Visibility: N/A

Pressure: 30.33 "Hg

Humidity: 59%

Dew point: 43 °F

Location of MindenLocation

Historic Weather in Minden — Graph

°F

Minden temperature yesterday

Maximum temperature yesterday: 61 °F (at 5:20 PM)
Minimum temperature yesterday: 41 °F (at 2:20 AM)
Average temperature yesterday: 52 °F

Past Weeks' High & Low Weather Summary

 TemperatureHumidityPressure
High77 °F (May 12, 12:20 PM)94% (May 16, 3:20 PM)30.33 "Hg (May 16, 3:20 PM)
Low37 °F (May 16, 5:20 AM)39% (May 10, 4:20 PM)29.59 "Hg (May 18, 8:20 PM)
Average55 °F66%30.04 "Hg
* Reported May 7 9:20 AM — May 22 9:20 AM, Minden, Weather by CustomWeather, © 2015

Note: Actual official high and low records may vary slightly from our data, if they occured in-between our weather recording intervals... More about our weather records

Advertising

Minden weather history for previous 24 hours

 ConditionsComfort  
Time TempWeatherWind HumidityBarometerVisibility
9:20 AM
Fri, May 22
57 °FPartly sunny.3 mph59%30.33 "HgN/A
8:20 AM54 °FPartly sunny.6 mph72%30.33 "HgN/A
7:20 AM50 °FPartly sunny.3 mph82%30.30 "HgN/A
6:20 AM43 °FPartly sunny.5 mph93%30.30 "HgN/A
5:20 AM43 °FFog.2 mph93%30.30 "HgN/A
4:20 AM46 °FPassing clouds.No wind87%30.30 "HgN/A
3:20 AM48 °FPassing clouds.2 mph82%30.30 "HgN/A
2:20 AM50 °FPassing clouds.2 mph76%30.30 "HgN/A
1:20 AM50 °FPassing clouds.3 mph71%30.30 "HgN/A
12:20 AM50 °FPassing clouds.3 mph76%30.30 "HgN/A
11:20 PM
Thu, May 21
54 °FPassing clouds.3 mph72%30.30 "HgN/A
10:20 PM54 °FPassing clouds.2 mph67%30.30 "HgN/A
9:20 PM55 °FPartly sunny.2 mph59%30.27 "HgN/A
8:20 PM59 °FScattered clouds.1 mph48%30.27 "HgN/A
7:20 PM61 °FPassing clouds.5 mph42%30.27 "HgN/A
6:20 PM61 °FPassing clouds.7 mph39%30.24 "HgN/A
5:20 PM61 °FScattered clouds.7 mph39%30.24 "HgN/A
4:20 PM59 °FScattered clouds.9 mph42%30.24 "HgN/A
3:20 PM57 °FPartly sunny.3 mph51%30.24 "HgN/A
2:20 PM57 °FPartly sunny.9 mph55%30.24 "HgN/A
1:20 PM54 °FPartly sunny.8 mph63%30.24 "HgN/A
12:20 PM54 °FPartly sunny.8 mph63%30.24 "HgN/A
11:20 AM50 °FBroken clouds.7 mph76%30.24 "HgN/A
10:20 AM52 °FBroken clouds.7 mph67%30.21 "HgN/A
Weather by CustomWeather, © 2015

See weather overviewHow to use our weather pages